TimeEDT,TemperatureF,Dew PointF,Humidity,Sea Level PressureIn,VisibilityMPH,Wind Direction,Wind SpeedMPH,Gust SpeedMPH,PrecipitationIn,Events,Conditions,WindDirDegrees,DateUTC
12:56 AM,66.0,52.0,60,29.99,10.0,North,13.8,-,N/A,,Mostly Cloudy,360,2012-10-07 04:56:00
1:56 AM,64.9,51.1,61,29.99,10.0,NNE,10.4,-,N/A,,Mostly Cloudy,20,2012-10-07 05:56:00
2:56 AM,64.0,52.0,65,29.99,10.0,NNE,12.7,-,N/A,,Mostly Cloudy,20,2012-10-07 06:56:00
3:56 AM,63.0,51.1,65,30.00,10.0,NE,12.7,-,N/A,,Overcast,40,2012-10-07 07:56:00
4:56 AM,63.0,51.1,65,30.00,10.0,NE,11.5,19.6,N/A,,Mostly Cloudy,40,2012-10-07 08:56:00
5:47 AM,64.4,51.8,64,30.02,10.0,North,9.2,-,0.00,Rain,Light Rain,10,2012-10-07 09:47:00
5:56 AM,63.0,53.1,70,30.04,10.0,North,13.8,-,0.00,Rain,Light Rain,350,2012-10-07 09:56:00
6:28 AM,60.8,48.2,63,30.03,10.0,North,16.1,-,0.00,,Overcast,360,2012-10-07 10:28:00
6:56 AM,59.0,48.9,69,30.03,10.0,NNE,12.7,-,0.00,Rain,Light Rain,20,2012-10-07 10:56:00
7:25 AM,59.0,48.2,67,30.01,10.0,NNE,15.0,21.9,0.00,,Overcast,20,2012-10-07 11:25:00
7:56 AM,59.0,51.1,75,30.03,10.0,NNE,17.3,-,0.00,,Overcast,20,2012-10-07 11:56:00
8:56 AM,60.1,53.1,78,30.03,10.0,NNE,17.3,-,N/A,,Overcast,30,2012-10-07 12:56:00
9:56 AM,61.0,54.0,78,30.05,10.0,NNE,13.8,-,N/A,,Overcast,20,2012-10-07 13:56:00
10:56 AM,62.1,55.9,80,30.05,10.0,North,8.1,-,N/A,,Overcast,350,2012-10-07 14:56:00
11:40 AM,59.0,55.4,88,30.06,10.0,NNW,21.9,27.6,0.00,Rain,Light Rain,330,2012-10-07 15:40:00
11:56 AM,57.9,54.0,87,30.06,4.0,North,15.0,24.2,0.03,Rain,Light Rain,360,2012-10-07 15:56:00
12:10 PM,57.2,53.6,88,30.06,3.0,North,13.8,-,0.03,Rain,Rain,360,2012-10-07 16:10:00
12:56 PM,59.0,57.0,93,30.03,9.0,NNE,11.5,-,0.29,,Mostly Cloudy,30,2012-10-07 16:56:00
1:56 PM,60.1,57.0,90,30.01,10.0,NE,8.1,-,N/A,,Overcast,40,2012-10-07 17:56:00
2:56 PM,57.9,55.0,90,30.00,10.0,NNE,11.5,-,N/A,,Overcast,20,2012-10-07 18:56:00
3:56 PM,57.9,55.0,90,30.00,10.0,North,8.1,-,N/A,,Overcast,360,2012-10-07 19:56:00
4:56 PM,57.9,55.9,93,29.99,10.0,North,5.8,-,0.00,,Light Drizzle,360,2012-10-07 20:56:00
5:56 PM,57.9,55.9,93,30.00,4.0,NNW,8.1,-,0.00,,Light Drizzle,340,2012-10-07 21:56:00
6:39 PM,57.2,55.4,94,30.01,3.0,NNW,6.9,-,0.01,Rain,Light Rain,330,2012-10-07 22:39:00
6:56 PM,57.9,57.0,97,30.03,3.0,NNW,9.2,-,0.02,Rain,Light Rain,330,2012-10-07 22:56:00
7:24 PM,59.0,57.2,94,30.03,3.0,NNW,9.2,-,0.01,,Light Drizzle,330,2012-10-07 23:24:00
7:32 PM,59.0,57.2,94,30.05,3.0,NW,10.4,-,0.01,,Light Drizzle,310,2012-10-07 23:32:00
7:56 PM,59.0,57.0,93,30.05,4.0,NW,12.7,-,0.01,,Light Drizzle,320,2012-10-07 23:56:00
8:24 PM,57.2,55.4,94,30.06,3.0,NW,15.0,24.2,0.01,,Light Drizzle,310,2012-10-08 00:24:00
8:56 PM,57.0,55.0,93,30.09,3.0,NW,13.8,24.2,0.02,,Light Drizzle,310,2012-10-08 00:56:00
9:56 PM,55.0,53.1,93,30.13,6.0,NNW,13.8,21.9,0.01,,Light Drizzle,340,2012-10-08 01:56:00
10:11 PM,55.4,51.8,88,30.11,7.0,North,13.8,-,0.00,,Overcast,350,2012-10-08 02:11:00
10:56 PM,55.9,52.0,87,30.12,10.0,NNW,10.4,-,0.00,,Overcast,340,2012-10-08 02:56:00
11:50 PM,57.2,51.8,82,30.12,10.0,NNW,6.9,-,N/A,,Overcast,340,2012-10-08 03:50:00
11:56 PM,57.0,52.0,83,30.13,10.0,North,8.1,-,N/A,,Overcast,350,2012-10-08 03:56:00